Tiempo cada hora Mushuli

Hoy, 21 Octubre, Miércoles

Tiempo Temperatura Precipitaciones Viento Presión Humedad
00:00 +11°C° 0.7 mm 1 mps 679 mmHg 93%
01:00 +11°C° 0.9 mm 1 mps 679 mmHg 93%
02:00 +11°C° 0.9 mm 1 mps 679 mmHg 93%
03:00 +11°C° 0 mm 1 mps 679 mmHg 93%
04:00 +10°C° 0.5 mm 1 mps 680 mmHg 93%
05:00 +10°C° 0.5 mm 1 mps 680 mmHg 93%
06:00 +10°C° 0.5 mm 1 mps 680 mmHg 93%
07:00 +10°C° 0.2 mm 1 mps 680 mmHg 92%
08:00 +10°C° 0.2 mm 1 mps 681 mmHg 92%
09:00 +11°C° 0 mm 1 mps 681 mmHg 90%
10:00 +11°C° 0 mm 1 mps 682 mmHg 85%
11:00 +12°C° 0 mm 1 mps 682 mmHg 80%
12:00 +13°C° 0 mm 1 mps 682 mmHg 75%
13:00 +14°C° 0 mm 1 mps 682 mmHg 72%
14:00 +14°C° 0 mm 1 mps 682 mmHg 69%
15:00 +15°C° 0 mm 2 mps 681 mmHg 66%
16:00 +13°C° 0 mm 1 mps 681 mmHg 73%
17:00 +12°C° 0 mm 1 mps 681 mmHg 81%
18:00 +9°C° 0 mm 0 mps 681 mmHg 88%
19:00 +9°C° 0 mm 0 mps 681 mmHg 87%
20:00 +10°C° 0 mm 1 mps 681 mmHg 86%
21:00 +10°C° 0 mm 1 mps 681 mmHg 85%
22:00 +9°C° 0 mm 1 mps 681 mmHg 82%
23:00 +9°C° 0 mm 1 mps 681 mmHg 79%

Mañana, 22 Octubre, Jueves

Tiempo Temperatura Precipitaciones Viento Presión Humedad
00:00 +9°C° 0 mm 1 mps 680 mmHg 77%
01:00 +9°C° 0 mm 1 mps 680 mmHg 77%
02:00 +8°C° 0 mm 2 mps 680 mmHg 77%
03:00 +8°C° 0 mm 2 mps 679 mmHg 78%
04:00 +8°C° 0 mm 2 mps 679 mmHg 74%
05:00 +9°C° 0 mm 1 mps 679 mmHg 71%
06:00 +9°C° 0 mm 1 mps 679 mmHg 68%
07:00 +10°C° 0 mm 1 mps 679 mmHg 60%
08:00 +12°C° 0 mm 1 mps 679 mmHg 53%
09:00 +14°C° 0 mm 1 mps 680 mmHg 46%
10:00 +15°C° 0 mm 1 mps 680 mmHg 43%
11:00 +16°C° 0 mm 1 mps 680 mmHg 39%
12:00 +18°C° 0 mm 1 mps 680 mmHg 35%
13:00 +18°C° 0 mm 1 mps 680 mmHg 36%
14:00 +17°C° 0 mm 2 mps 679 mmHg 36%
15:00 +17°C° 0 mm 2 mps 679 mmHg 36%
16:00 +15°C° 0 mm 1 mps 679 mmHg 44%
17:00 +13°C° 0 mm 1 mps 679 mmHg 52%
18:00 +11°C° 0 mm 1 mps 678 mmHg 60%
19:00 +11°C° 0 mm 1 mps 678 mmHg 57%
20:00 +11°C° 0 mm 1 mps 679 mmHg 53%
21:00 +11°C° 0 mm 1 mps 679 mmHg 50%
22:00 +11°C° 0 mm 1 mps 679 mmHg 49%
23:00 +11°C° 0 mm 1 mps 679 mmHg 47%

Pasado mañana, 23 Octubre, Viernes

Tiempo Temperatura Precipitaciones Viento Presión Humedad
00:00 +11°C° 0 mm 1 mps 678 mmHg 46%
01:00 +11°C° 0 mm 1 mps 678 mmHg 45%
02:00 +10°C° 0 mm 1 mps 678 mmHg 44%
03:00 +10°C° 0 mm 1 mps 678 mmHg 44%
04:00 +10°C° 0 mm 1 mps 678 mmHg 44%
05:00 +10°C° 0 mm 1 mps 678 mmHg 45%
06:00 +10°C° 0 mm 1 mps 678 mmHg 45%
07:00 +11°C° 0 mm 1 mps 679 mmHg 43%
08:00 +13°C° 0 mm 1 mps 679 mmHg 40%
09:00 +14°C° 0 mm 1 mps 680 mmHg 38%
10:00 +15°C° 0 mm 1 mps 680 mmHg 35%
11:00 +16°C° 0 mm 1 mps 680 mmHg 32%
12:00 +17°C° 0 mm 2 mps 680 mmHg 29%
13:00 +17°C° 0 mm 2 mps 680 mmHg 31%
14:00 +17°C° 0 mm 2 mps 680 mmHg 32%
15:00 +18°C° 0 mm 2 mps 679 mmHg 34%
16:00 +16°C° 0 mm 2 mps 679 mmHg 39%
17:00 +15°C° 0 mm 1 mps 679 mmHg 44%
18:00 +13°C° 0 mm 1 mps 679 mmHg 50%
19:00 +13°C° 0 mm 1 mps 679 mmHg 48%
20:00 +13°C° 0 mm 1 mps 679 mmHg 47%
21:00 +13°C° 0 mm 1 mps 679 mmHg 46%
22:00 +13°C° 0 mm 1 mps 678 mmHg 46%
23:00 +13°C° 0 mm 1 mps 678 mmHg 45%

24 Octubre, Sábado

Tiempo Temperatura Precipitaciones Viento Presión Humedad
00:00 +12°C° 0 mm 1 mps 678 mmHg 45%
01:00 +12°C° 0 mm 1 mps 677 mmHg 46%
02:00 +12°C° 0 mm 1 mps 677 mmHg 47%
03:00 +12°C° 0 mm 1 mps 677 mmHg 47%
04:00 +12°C° 0 mm 1 mps 677 mmHg 47%
05:00 +12°C° 0 mm 2 mps 677 mmHg 47%
06:00 +12°C° 0 mm 2 mps 676 mmHg 47%
07:00 +14°C° 0 mm 1 mps 677 mmHg 44%
08:00 +16°C° 0 mm 1 mps 677 mmHg 41%
09:00 +19°C° 0 mm 1 mps 678 mmHg 38%
10:00 +21°C° 0 mm 1 mps 678 mmHg 35%
11:00 +22°C° 0 mm 1 mps 678 mmHg 32%
12:00 +24°C° 0 mm 1 mps 678 mmHg 30%
13:00 +24°C° 0 mm 1 mps 678 mmHg 31%
14:00 +23°C° 0 mm 1 mps 677 mmHg 32%
15:00 +23°C° 0 mm 1 mps 677 mmHg 34%
16:00 +21°C° 0 mm 1 mps 677 mmHg 40%
17:00 +19°C° 0 mm 1 mps 676 mmHg 46%
18:00 +15°C° 0 mm 0 mps 676 mmHg 52%
19:00 +15°C° 0 mm 0 mps 676 mmHg 53%
20:00 +16°C° 0 mm 1 mps 676 mmHg 53%
21:00 +15°C° 0 mm 1 mps 676 mmHg 53%
22:00 +15°C° 0 mm 1 mps 676 mmHg 52%
23:00 +15°C° 0 mm 1 mps 676 mmHg 52%

25 Octubre, Domingo

Tiempo Temperatura Precipitaciones Viento Presión Humedad
00:00 +14°C° 0 mm 1 mps 676 mmHg 51%
01:00 +14°C° 0 mm 1 mps 675 mmHg 51%
02:00 +14°C° 0 mm 1 mps 675 mmHg 51%
03:00 +14°C° 0 mm 2 mps 675 mmHg 51%
04:00 +14°C° 0 mm 2 mps 675 mmHg 50%
05:00 +14°C° 0 mm 1 mps 675 mmHg 49%
06:00 +13°C° 0 mm 1 mps 675 mmHg 48%
07:00 +15°C° 0 mm 1 mps 675 mmHg 45%
08:00 +18°C° 0 mm 1 mps 675 mmHg 41%
09:00 +20°C° 0 mm 1 mps 676 mmHg 38%
10:00 +21°C° 0 mm 1 mps 676 mmHg 35%
11:00 +22°C° 0 mm 1 mps 676 mmHg 33%
12:00 +24°C° 0 mm 1 mps 676 mmHg 30%
13:00 +23°C° 0 mm 1 mps 676 mmHg 33%
14:00 +23°C° 0 mm 1 mps 675 mmHg 36%
15:00 +23°C° 0 mm 2 mps 675 mmHg 39%
16:00 +21°C° 0 mm 1 mps 675 mmHg 46%
17:00 +19°C° 0 mm 1 mps 675 mmHg 54%
18:00 +16°C° 0 mm 1 mps 674 mmHg 61%
19:00 +15°C° 0 mm 1 mps 674 mmHg 60%
20:00 +15°C° 0 mm 1 mps 674 mmHg 59%
21:00 +15°C° 0 mm 1 mps 674 mmHg 58%
22:00 +15°C° 0 mm 1 mps 674 mmHg 55%
23:00 +14°C° 0 mm 1 mps 674 mmHg 53%

26 Octubre, Lunes

Tiempo Temperatura Precipitaciones Viento Presión Humedad
00:00 +14°C° 0 mm 1 mps 674 mmHg 51%
01:00 +14°C° 0 mm 1 mps 674 mmHg 51%
02:00 +14°C° 0 mm 1 mps 674 mmHg 51%
03:00 +13°C° 0 mm 1 mps 674 mmHg 51%
04:00 +13°C° 0 mm 1 mps 674 mmHg 52%
05:00 +12°C° 0 mm 1 mps 674 mmHg 54%
06:00 +12°C° 0 mm 1 mps 674 mmHg 56%
07:00 +13°C° 0 mm 1 mps 675 mmHg 52%
08:00 +14°C° 0 mm 0 mps 675 mmHg 49%
09:00 +15°C° 0 mm 0 mps 676 mmHg 45%
10:00 +18°C° 0 mm 1 mps 676 mmHg 44%
11:00 +19°C° 0 mm 1 mps 676 mmHg 43%
12:00 +20°C° 0 mm 1 mps 676 mmHg 41%
13:00 +20°C° 0 mm 1 mps 676 mmHg 43%
14:00 +18°C° 0 mm 2 mps 676 mmHg 46%
15:00 +18°C° 0 mm 2 mps 676 mmHg 48%
16:00 +18°C° 0 mm 1 mps 675 mmHg 56%
17:00 +15°C° 0 mm 1 mps 675 mmHg 64%
18:00 +13°C° 0 mm 1 mps 675 mmHg 73%
19:00 +13°C° 0 mm 1 mps 675 mmHg 74%
20:00 +11°C° 0 mm 0 mps 675 mmHg 75%
21:00 +11°C° 0 mm 0 mps 675 mmHg 76%
22:00 +11°C° 0 mm 0 mps 675 mmHg 77%
23:00 +10°C° 0 mm 0 mps 675 mmHg 78%

27 Octubre, Martes

Tiempo Temperatura Precipitaciones Viento Presión Humedad
00:00 +10°C° 0 mm 0 mps 675 mmHg 80%
01:00 +9°C° 0 mm 0 mps 675 mmHg 81%
02:00 +9°C° 0 mm 0 mps 675 mmHg 82%
03:00 +9°C° 0 mm 0 mps 674 mmHg 84%
04:00 +9°C° 0 mm 0 mps 675 mmHg 84%
05:00 +9°C° 0 mm 1 mps 675 mmHg 84%
06:00 +9°C° 0 mm 1 mps 675 mmHg 84%
07:00 +11°C° 0 mm 1 mps 675 mmHg 78%
08:00 +12°C° 0 mm 1 mps 676 mmHg 72%
09:00 +12°C° 0 mm 0 mps 676 mmHg 66%
10:00 +14°C° 0 mm 1 mps 676 mmHg 63%
11:00 +15°C° 0 mm 1 mps 676 mmHg 61%
12:00 +16°C° 0 mm 2 mps 677 mmHg 58%
13:00 +16°C° 0 mm 2 mps 676 mmHg 62%
14:00 +15°C° 0 mm 2 mps 676 mmHg 66%
15:00 +14°C° 0 mm 2 mps 676 mmHg 71%
16:00 +13°C° 0 mm 2 mps 676 mmHg 76%
17:00 +12°C° 0 mm 1 mps 676 mmHg 81%
18:00 +11°C° 0 mm 1 mps 676 mmHg 85%
19:00 +11°C° 0 mm 1 mps 676 mmHg 86%
20:00 +9°C° 0 mm 0 mps 676 mmHg 87%
21:00 +9°C° 0 mm 0 mps 676 mmHg 87%
22:00 +9°C° 0 mm 0 mps 676 mmHg 87%
23:00 +10°C° 0 mm 1 mps 676 mmHg 87%
Mostrar más

Necesitamos Su Consentimiento

Meteoprog y nuestros Proveedores de Servicios pueden almacenar y acceder a sus datos personales como cookies, identificadores de dispositivo u otras tecnologías similares de su dispositivo y procesar dichos datos para personalizar contenido y anuncios, además de ofrecer funciones de redes sociales y analizar el tráfico.

  • Almacenar y/o acceder a información en su dispositivo

    Se puede almacenar o acceder a cookies, identificadores de dispositivo u otra información de su dispositivo para los fines anteriormente indicados.

  • Anuncios y contenido personalizados, medición de anuncios y contenido, percepciones del público, y desarrollo de productos

    Los anuncios y el contenido pueden personalizarse en base a su perfil. Se pueden añadir más datos para personalizar mejor los anuncios y contenidos. Se puede medir el rendimiento de los anuncios y contenidos. Se puede obtener la percepción sobre el público que ha visto los anuncios y contenidos. Dichos datos pueden usarse para desarrollar o mejorar la experiencia del usuario, sistemas y software.

Al hacer clic en ‘Estoy De Acuerdo’ usted permitirá el uso de las cookies, identificadores de dispositivo, balizas web u otras tecnologías similares indicadas. Su configuración puede cambiarse desde el navegador de su dispositivo.

Para ciertos fines, los intereses legítimos pueden ser considerados por encima del consentimiento. Puede leer más sobre ello en nuestra Política de Privacidad y Cookies.